Retour au catalogue

STARLINK-35061

ActifCommunicationsVLEO
NORAD 66191·PAYLOAD·🇺🇸 United States

Lancé Oct 26, 2025 depuis Cape Canaveral Space Force Station

Loading…

Prochains Passages (prochaines 24 heures)

TLE

FraisSource: CelesTrak SupGP

Époque: Sep 15, 2026, 02:56 UTC

1 66191C 25243Q   26258.12270833 -.00023417  00000+0 -69190-3 0  2582
2 66191  53.1570  82.8961 0001151  87.3919 196.3850 15.34400895    17

Suivez STARLINK-35061 en temps réel avec AllMySat

Download on the App Store